SV2BZQ-2 Thessalonik GR current weather conditions

sailwx.info

Wind from 141

Air temperature 27.8° C
Dewpoint 21.1° C

Last reported at 2016-Jun-30 18:45 UTC.
Time now 2016-Jun-30 19:38 UTC

Location: N 40°41' E 022°51'.
View on Google Maps.

See reports from other nearby stations

  
Tides and Currents Weather Stations Pressure Air Temp Water Temp Dewpoint Dewpoint Depression Visibility Wind Speed Wind Dir Waves Ship Positions
date/time (UTC)wind fromknots sea level pressurealtimeterstation pressurevisibilityair tempwater tempwave heightnotes
2016-Jun-30 18:45 141 27.8
2016-Jun-30 18:41 138 27.8
2016-Jun-30 18:35 132 27.8
2016-Jun-30 18:31 130 27.8
2016-Jun-30 18:25 155 27.8
2016-Jun-30 18:21 148 27.8
2016-Jun-30 18:14 142 27.8
2016-Jun-30 18:10 132 0 gusting 4 27.8
2016-Jun-30 18:04 162 0 gusting 4 28.3
2016-Jun-30 18:00 150 0 gusting 4 28.3
2016-Jun-30 17:54 150 0 gusting 4 28.3
2016-Jun-30 17:50 144 1 gusting 5 28.3
2016-Jun-30 17:44 155 1 gusting 6 28.3
2016-Jun-30 17:40 146 2 gusting 8 28.9
2016-Jun-30 17:34 115 2 gusting 8 28.9
2016-Jun-30 17:30 146 1 gusting 6 28.9
2016-Jun-30 17:26 163 1 gusting 6 28.9
2016-Jun-30 17:20 173 2 gusting 7 29.4
2016-Jun-30 17:16 174 2 gusting 7 29.4
2016-Jun-30 17:10 176 2 gusting 6 29.4
2016-Jun-30 17:06 155 2 gusting 5 29.4
2016-Jun-30 17:00 142 2 gusting 6 29.4
2016-Jun-30 16:56 149 3 gusting 7 29.4
2016-Jun-30 16:49 165 3 gusting 7 29.4
2016-Jun-30 16:46 157 3 gusting 7 30.0
2016-Jun-30 16:39 155 4 gusting 8 30.0
2016-Jun-30 16:35 170 3 gusting 8 30.0
2016-Jun-30 16:29 141 3 gusting 6 30.6
2016-Jun-30 16:25 181 3 gusting 7 30.6
2016-Jun-30 16:19 148 2 gusting 7 30.6
2016-Jun-30 16:15 154 2 gusting 7 30.6
2016-Jun-30 16:09 154 3 gusting 7 30.6
2016-Jun-30 16:05 171 4 gusting 7 30.6
2016-Jun-30 15:59 149 4 gusting 8 30.6
2016-Jun-30 15:55 161 4 gusting 8 30.6
2016-Jun-30 15:49 183 4 gusting 9 31.1
2016-Jun-30 15:45 171 4 gusting 9 31.1
2016-Jun-30 15:39 175 4 gusting 9 31.1
2016-Jun-30 15:35 208 5 gusting 10 31.1
2016-Jun-30 15:31 157 5 gusting 10 31.1
2016-Jun-30 15:25 180 4 gusting 10 31.7
2016-Jun-30 15:21 137 4 gusting 11 31.7
2016-Jun-30 15:15 210 4 gusting 11 31.7
2016-Jun-30 15:11 155 6 gusting 10 31.1
2016-Jun-30 15:04 155 5 gusting 10 31.7
2016-Jun-30 15:00 155 5 gusting 10 31.7
2016-Jun-30 14:55 166 5 gusting 9 31.7
2016-Jun-30 14:51 206 5 gusting 9 31.7
2016-Jun-30 14:44 200 5 gusting 10 31.7
2016-Jun-30 14:40 163 5 gusting 10 31.7
2016-Jun-30 14:34 184 4 gusting 9 32.2
2016-Jun-30 14:29 211 5 gusting 9 32.2
2016-Jun-30 14:20 161 5 gusting 11 32.2
2016-Jun-30 14:14 171 5 gusting 10 32.2
2016-Jun-30 14:10 159 4 gusting 10 32.2
2016-Jun-30 14:04 138 4 gusting 10 32.2
2016-Jun-30 14:01 210 4 gusting 9 32.2
2016-Jun-30 13:54 155 5 gusting 11 32.2
2016-Jun-30 13:50 175 5 gusting 11 32.2
2016-Jun-30 13:46 151 5 gusting 11 32.8
2016-Jun-30 13:40 187 5 gusting 10 32.8
2016-Jun-30 13:36 157 5 gusting 11 32.8
2016-Jun-30 13:30 202 5 gusting 11 32.2
2016-Jun-30 13:26 184 6 gusting 12 32.8
2016-Jun-30 13:19 188 6 gusting 12 32.8
2016-Jun-30 13:15 159 5 gusting 11 33.3
2016-Jun-30 13:09 151 4 gusting 11 33.3
2016-Jun-30 13:05 171 4 gusting 10 33.3
2016-Jun-30 13:00 215 4 gusting 10 32.8
2016-Jun-30 12:55 149 5 gusting 11 33.3
2016-Jun-30 12:49 123 5 gusting 11 33.3
2016-Jun-30 12:45 161 5 gusting 11 33.3
2016-Jun-30 12:39 187 4 gusting 9 33.3
2016-Jun-30 12:35 196 4 gusting 8 33.3
2016-Jun-30 12:30 160 3 gusting 8 33.3
2016-Jun-30 12:25 205 4 gusting 10 33.9
2016-Jun-30 12:19 160 4 gusting 10 33.9
2016-Jun-30 12:15 180 4 gusting 10 33.3
2016-Jun-30 12:09 184 4 gusting 9 33.3
2016-Jun-30 12:05 194 4 gusting 9 33.3
2016-Jun-30 12:01 198 4 gusting 8 33.9
2016-Jun-30 11:55 198 3 gusting 8 33.9
2016-Jun-30 11:51 157 4 gusting 8 33.9
2016-Jun-30 11:45 198 4 gusting 9 33.9
2016-Jun-30 11:41 180 4 gusting 9 33.9
2016-Jun-30 11:35 188 4 gusting 7 33.9
2016-Jun-30 11:30 191 5 gusting 9 33.3
2016-Jun-30 11:25 196 5 gusting 10 33.3
2016-Jun-30 11:20 211 4 gusting 10 33.9
2016-Jun-30 11:14 167 4 gusting 10 33.3
2016-Jun-30 11:10 164 4 gusting 9 33.3
2016-Jun-30 11:04 159 4 gusting 9 33.3
2016-Jun-30 11:00 123 4 gusting 9 33.3
2016-Jun-30 10:54 203 4 gusting 8 33.3
2016-Jun-30 10:50 157 4 gusting 8 33.3
2016-Jun-30 10:44 173 4 gusting 8 33.3
2016-Jun-30 10:40 221 4 gusting 8 33.3
2016-Jun-30 10:34 219 3 gusting 8 33.3
2016-Jun-30 10:30 222 3 gusting 6 33.3
2016-Jun-30 10:24 197 4 gusting 8 32.8
2016-Jun-30 10:20 252 5 gusting 9 33.3
2016-Jun-30 10:14 241 3 gusting 9 32.8
2016-Jun-30 10:10 180 3 gusting 8 32.8
2016-Jun-30 10:04 221 4 gusting 8 32.8
2016-Jun-30 10:00 223 4 gusting 6 33.3
2016-Jun-30 09:56 211 3 gusting 6 33.3
2016-Jun-30 09:50 171 3 gusting 8 32.8
2016-Jun-30 09:46 180 4 gusting 11 32.8
2016-Jun-30 09:40 201 6 gusting 11 32.8
2016-Jun-30 09:36 188 5 gusting 10 32.8
2016-Jun-30 09:30 152 2 gusting 5 32.8
2016-Jun-30 09:26 214 2 gusting 8 32.8
2016-Jun-30 09:19 184 3 gusting 8 32.8
2016-Jun-30 09:15 146 4 gusting 8 32.8
2016-Jun-30 09:09 186 3 gusting 10 32.8
2016-Jun-30 09:05 208 3 gusting 10 32.8
2016-Jun-30 08:59 144 3 gusting 6 32.8
2016-Jun-30 08:55 180 3 gusting 6 32.8
2016-Jun-30 08:49 206 2 gusting 6 32.2
2016-Jun-30 08:45 146 1 gusting 6 32.2
2016-Jun-30 08:39 167 2 gusting 7 32.2
2016-Jun-30 08:35 193 2 gusting 7 31.7
2016-Jun-30 08:29 166 1 gusting 5 31.7
2016-Jun-30 08:25 289 2 gusting 6 31.7
2016-Jun-30 08:19 225 2 gusting 6 31.7
2016-Jun-30 08:15 258 2 gusting 7 31.7
2016-Jun-30 08:09 217 2 gusting 7 31.7
2016-Jun-30 08:05 206 2 gusting 7 31.1
2016-Jun-30 07:59 232 1 gusting 6 31.1
2016-Jun-30 07:55 281 1 gusting 6 31.1
2016-Jun-30 07:49 180 1 gusting 4 30.6
2016-Jun-30 07:45 213 1 gusting 3 30.0
2016-Jun-30 07:39 290 3 gusting 6 30.0
2016-Jun-30 07:35 273 3 gusting 6 30.0
2016-Jun-30 07:31 214 1 gusting 5 30.0
2016-Jun-30 07:25 277 1 gusting 5 30.0
2016-Jun-30 07:21 275 1 gusting 5 30.0
2016-Jun-30 07:15 244 2 gusting 5 29.4
2016-Jun-30 07:11 216 2 gusting 5 29.4
2016-Jun-30 07:05 210 2 gusting 5 29.4
2016-Jun-30 07:01 279 1 gusting 5 29.4
2016-Jun-30 06:55 166 2 gusting 6 29.4
2016-Jun-30 06:51 165 2 gusting 6 29.4
2016-Jun-30 06:45 262 1 gusting 6 28.9
2016-Jun-30 06:41 271 1 gusting 5 28.9
2016-Jun-30 06:35 257 1 gusting 5 28.9
2016-Jun-30 06:30 269 0 gusting 3 28.3
2016-Jun-30 06:24 269 1 gusting 5 28.3
2016-Jun-30 06:20 263 1 gusting 5 27.8
2016-Jun-30 06:14 295 0 gusting 3 27.8
2016-Jun-30 06:10 295 1 gusting 4 27.8
2016-Jun-30 06:04 295 2 gusting 4 27.2
2016-Jun-30 06:01 317 1 gusting 4 27.2
2016-Jun-30 05:54 276 2 gusting 6 27.2
2016-Jun-30 05:50 300 3 gusting 6 27.2
2016-Jun-30 05:46 310 1 gusting 6 26.7
2016-Jun-30 05:40 310 3 gusting 6 26.7
2016-Jun-30 05:34 271 2 gusting 6 26.7
2016-Jun-30 05:31 277 1 gusting 6 26.7
2016-Jun-30 05:24 302 3 gusting 6 26.7
2016-Jun-30 05:20 292 2 gusting 6 26.7
2016-Jun-30 05:16 271 2 gusting 6 26.7
2016-Jun-30 05:09 297 1 gusting 3 26.7
2016-Jun-30 05:05 288 1 gusting 3 26.7
2016-Jun-30 05:00 057 0 gusting 3 26.7
2016-Jun-30 04:55 059 26.7
2016-Jun-30 04:49 059 26.1
2016-Jun-30 04:45 059 0 gusting 2 26.1
2016-Jun-30 04:39 059 0 gusting 3 26.1
2016-Jun-30 04:35 059 0 gusting 3 25.6
2016-Jun-30 04:29 061 25.0
2016-Jun-30 04:25 061 25.6
2016-Jun-30 04:19 061 0 gusting 4 25.0
2016-Jun-30 04:15 060 25.0
2016-Jun-30 04:11 061 25.0
2016-Jun-30 04:05 065 25.0
2016-Jun-30 04:01 060 25.0
2016-Jun-30 03:55 064 25.0
2016-Jun-30 03:51 067 25.0
2016-Jun-30 03:45 068 25.0
2016-Jun-30 03:40 068 25.0
2016-Jun-30 03:34 063 25.0
2016-Jun-30 03:30 065 25.0
2016-Jun-30 03:24 065 25.0
2016-Jun-30 03:20 065 25.0
2016-Jun-30 03:14 066 24.4
2016-Jun-30 03:10 066 24.4
2016-Jun-30 03:04 064 24.4
2016-Jun-30 03:00 063 24.4
2016-Jun-30 02:54 062 24.4
2016-Jun-30 02:50 060 24.4
2016-Jun-30 02:44 030 23.9
2016-Jun-30 02:40 065 23.9
2016-Jun-30 02:36 050 23.9
2016-Jun-30 02:29 290 23.9
2016-Jun-30 02:25 290 23.9
2016-Jun-30 02:19 290 23.9
2016-Jun-30 02:15 290 23.9
2016-Jun-30 02:09 290 23.9
2016-Jun-30 02:05 290 23.9
2016-Jun-30 01:59 290 23.9
2016-Jun-30 01:55 290 24.4
2016-Jun-30 01:49 290 24.4
2016-Jun-30 01:45 290 24.4
2016-Jun-30 01:39 290 0 gusting 3 24.4
2016-Jun-30 01:35 292 0 gusting 3 24.4
2016-Jun-30 01:31 296 0 gusting 3 24.4
2016-Jun-30 01:25 336 24.4
2016-Jun-30 01:21 335 24.4
2016-Jun-30 01:15 304 25.0
2016-Jun-30 01:11 293 25.0
2016-Jun-30 01:05 304 25.0
2016-Jun-30 01:01 288 0 gusting 4 25.6
2016-Jun-30 00:54 299 1 gusting 6 25.6
2016-Jun-30 00:50 309 0 gusting 6 26.1
2016-Jun-30 00:44 257 0 gusting 5 26.1
2016-Jun-30 00:40 249 0 gusting 5 26.1
2016-Jun-30 00:34 290 1 gusting 6 26.1
2016-Jun-30 00:30 291 2 gusting 6 26.1
2016-Jun-30 00:24 333 1 gusting 5 26.1
2016-Jun-30 00:20 325 0 gusting 5 26.1
2016-Jun-30 00:14 010 0 gusting 4 26.7
2016-Jun-30 00:10 010 0 gusting 4 26.7
2016-Jun-30 00:04 015 0 gusting 4 26.7
2016-Jun-30 00:00 300 0 gusting 6 26.7
2016-Jun-29 23:56 334 1 gusting 6 26.7
2016-Jun-29 23:50 313 1 gusting 6 26.7
2016-Jun-29 23:46 349 1 gusting 6 26.7
2016-Jun-29 23:40 334 26.7
2016-Jun-29 23:35 329 0 gusting 4 26.7
2016-Jun-29 23:29 327 1 gusting 5 26.7
2016-Jun-29 23:25 297 1 gusting 5 26.7
2016-Jun-29 23:19 337 26.7
2016-Jun-29 23:15 024 26.7
2016-Jun-29 23:09 024 0 gusting 3 26.7
2016-Jun-29 23:05 024 0 gusting 4 26.7
2016-Jun-29 22:59 010 0 gusting 4 26.7
2016-Jun-29 22:55 355 27.2
2016-Jun-29 22:49 009 0 gusting 5 27.2
2016-Jun-29 22:45 009 2 gusting 6 27.2
2016-Jun-29 22:41 335 1 gusting 7 26.7
2016-Jun-29 22:35 005 3 gusting 7 27.2
2016-Jun-29 22:31 338 3 gusting 8 27.2
2016-Jun-29 22:25 319 4 gusting 8 27.2
2016-Jun-29 22:21 012 3 gusting 7 27.2
2016-Jun-29 22:15 355 3 gusting 8 27.2
2016-Jun-29 22:10 355 3 gusting 8 27.2
2016-Jun-29 22:04 343 3 gusting 9 27.2
2016-Jun-29 22:00 342 2 gusting 9 27.2
2016-Jun-29 21:54 333 1 gusting 6 27.2
2016-Jun-29 21:50 017 1 gusting 7 27.2
2016-Jun-29 21:46 339 2 gusting 7 27.2
2016-Jun-29 21:40 021 2 gusting 7 27.8
2016-Jun-29 21:36 328 3 gusting 7 27.8
2016-Jun-29 21:30 304 3 gusting 7 27.8
2016-Jun-29 21:26 336 2 gusting 7 27.8
2016-Jun-29 21:20 319 2 gusting 6 27.8
2016-Jun-29 21:15 011 3 gusting 7 27.8
2016-Jun-29 21:09 320 4 gusting 9 27.8
2016-Jun-29 21:05 323 4 gusting 9 27.8
2016-Jun-29 20:59 310 5 gusting 8 28.3
2016-Jun-29 20:55 344 5 gusting 8 28.3
2016-Jun-29 20:50 315 5 gusting 7 28.3
2016-Jun-29 20:44 014 5 gusting 11 28.3
2016-Jun-29 20:40 317 4 gusting 11 28.3
2016-Jun-29 20:36 337 5 gusting 11 28.3
2016-Jun-29 20:29 355 4 gusting 9 28.3
2016-Jun-29 20:25 348 4 gusting 10 28.3
2016-Jun-29 20:19 310 4 gusting 10 28.3
2016-Jun-29 20:15 343 4 gusting 8 28.3
2016-Jun-29 20:09 326 5 gusting 8 28.3
2016-Jun-29 20:06 28.3
2016-Jun-29 19:59 338 5 gusting 12 28.3
2016-Jun-29 19:55 28.3
2016-Jun-29 19:49 336 6 gusting 12 28.3
2016-Jun-29 19:45 314 6 gusting 11 28.3
2016-Jun-29 19:41 326 6 gusting 11 28.9
2016-Jun-29 19:35 324 6 gusting 11 28.9
2016-Jun-29 19:31 317 6 gusting 11 28.9
2016-Jun-29 19:25 318 6 gusting 11 28.9
2016-Jun-29 19:21 332 6 gusting 11 28.9
2016-Jun-29 19:14 322 6 gusting 11 28.9
2016-Jun-29 19:10 279 6 gusting 10 29.4
2016-Jun-29 19:04 320 5 gusting 8 29.4
2016-Jun-29 19:00 330 4 gusting 10 29.4
2016-Jun-29 18:56 342 4 gusting 11 28.9
2016-Jun-29 18:51 294 5 gusting 11 29.4
2016-Jun-29 18:44 308 4 gusting 8 29.4
2016-Jun-29 18:40 308 4 gusting 9 29.4
2016-Jun-29 18:34 300 4 gusting 9 30.0
2016-Jun-29 18:30 327 3 gusting 8 30.0
2016-Jun-29 18:25 330 2 gusting 8 29.4
2016-Jun-29 18:20 302 3 gusting 7 30.0
2016-Jun-29 18:16 327 4 gusting 8 30.0
2016-Jun-29 18:10 319 3 gusting 8 30.0
2016-Jun-29 18:06 326 3 gusting 8 30.6
2016-Jun-29 18:00 345 4 gusting 8 30.6
2016-Jun-29 17:56 341 4 gusting 8 30.6
2016-Jun-29 17:50 333 5 gusting 9 30.6
2016-Jun-29 17:46 046 5 gusting 9 30.6
2016-Jun-29 17:39 286 4 gusting 8 30.6
2016-Jun-29 17:35 325 5 gusting 9 30.6
2016-Jun-29 17:29 317 6 gusting 10 31.1
2016-Jun-29 17:26 022 6 gusting 10 31.1
2016-Jun-29 17:19 349 6 gusting 16 31.1
2016-Jun-29 17:15 306 6 gusting 16 31.1
2016-Jun-29 17:09 332 6 gusting 13 31.1
2016-Jun-29 17:05 304 6 gusting 13 31.1
2016-Jun-29 16:59 028 6 gusting 14 31.1
2016-Jun-29 16:55 309 6 gusting 14 31.7
2016-Jun-29 16:49 349 6 gusting 12 31.7
2016-Jun-29 16:45 327 6 gusting 12 31.7
2016-Jun-29 16:39 303 6 gusting 13 31.7
2016-Jun-29 16:35 350 6 gusting 13 31.7
2016-Jun-29 16:29 321 6 gusting 12 31.7
2016-Jun-29 16:25 355 6 gusting 13 31.7
2016-Jun-29 16:21 317 6 gusting 13 31.7
2016-Jun-29 16:15 318 6 gusting 12 32.2
2016-Jun-29 16:11 324 6 gusting 12 32.2
2016-Jun-29 16:05 330 6 gusting 12 32.2
2016-Jun-29 16:01 306 6 gusting 13 32.2
2016-Jun-29 15:55 344 6 gusting 13 31.7
2016-Jun-29 15:51 32.2
2016-Jun-29 15:44 271 6 gusting 14 32.2
2016-Jun-29 15:40 281 7 gusting 14 32.2
2016-Jun-29 15:34 326 6 gusting 14 32.2
2016-Jun-29 15:30 271 6 gusting 13 32.2
2016-Jun-29 15:25 311 6 gusting 13 32.2
2016-Jun-29 15:20 303 7 gusting 13 32.8
2016-Jun-29 15:14 344 7 gusting 14 32.8
2016-Jun-29 15:10 351 6 gusting 14 32.8
2016-Jun-29 15:06 302 6 gusting 14 32.8
2016-Jun-29 15:00 316 6 gusting 14 32.8
2016-Jun-29 14:56 319 6 gusting 11 32.8
2016-Jun-29 14:50 343 6 gusting 14 32.8
2016-Jun-29 14:45 355 6 gusting 14 32.8
2016-Jun-29 14:39 355 6 gusting 16 32.8
2016-Jun-29 14:35 346 7 gusting 16 32.8
2016-Jun-29 14:29 314 7 gusting 14 32.8
2016-Jun-29 14:25 311 8 gusting 14 32.8
2016-Jun-29 14:19 302 7 gusting 13 32.8
2016-Jun-29 14:15 339 7 gusting 13 32.8
2016-Jun-29 14:09 300 7 gusting 14 32.8
2016-Jun-29 14:05 254 6 gusting 14 32.8
2016-Jun-29 14:01 292 7 gusting 14 32.8
2016-Jun-29 13:55 355 7 gusting 15 32.8
2016-Jun-29 13:50 279 7 gusting 15 32.8
2016-Jun-29 13:44 298 7 gusting 14 32.8
2016-Jun-29 13:40 32.8
2016-Jun-29 13:21 315 7 gusting 15 32.8
2016-Jun-29 13:15 32.8
2016-Jun-29 13:09 292 7 gusting 16 32.8
2016-Jun-29 13:05 272 6 gusting 16 32.8
2016-Jun-29 13:01 311 4 gusting 13 32.8
2016-Jun-29 12:55 280 6 gusting 13 32.8
2016-Jun-29 12:51 315 7 gusting 13 32.8
2016-Jun-29 12:45 351 7 gusting 13 32.8
2016-Jun-29 12:41 265 7 gusting 13 32.8
2016-Jun-29 12:35 277 6 gusting 14 32.8
2016-Jun-29 12:31 312 6 gusting 14 32.8
2016-Jun-29 12:25 296 6 gusting 13 32.2
2016-Jun-29 12:21 310 6 gusting 13 32.2
2016-Jun-29 12:15 030 7 gusting 13 32.2
2016-Jun-29 12:10 012 7 gusting 13 32.2
2016-Jun-29 12:04 291 6 gusting 13 32.2
2016-Jun-29 12:00 298 6 gusting 13 32.2
2016-Jun-29 11:54 022 6 gusting 12 32.8
2016-Jun-29 11:50 329 5 gusting 12 32.8
2016-Jun-29 11:45 248 6 gusting 14 32.8
2016-Jun-29 11:40 302 6 gusting 14 32.2
2016-Jun-29 11:34 263 5 gusting 13 32.2
2016-Jun-29 11:30 253 4 gusting 10 32.2
2016-Jun-29 11:24 250 5 gusting 10 31.7
2016-Jun-29 11:20 294 4 gusting 9 31.7
2016-Jun-29 11:14 293 5 gusting 10 32.2
2016-Jun-29 11:10 298 4 gusting 10 31.7
2016-Jun-29 11:04 348 6 gusting 13 31.7
2016-Jun-29 11:00 264 6 gusting 13 31.7
2016-Jun-29 10:54 269 5 gusting 13 31.7
2016-Jun-29 10:50 292 6 gusting 13 31.7
2016-Jun-29 10:44 269 6 gusting 13 31.7
2016-Jun-29 10:40 321 6 gusting 13 31.7
2016-Jun-29 10:34 270 6 gusting 13 31.7
2016-Jun-29 10:30 31.7
2016-Jun-29 10:26 017 5 gusting 15 31.1
2016-Jun-29 10:20 305 6 gusting 17 31.1
2016-Jun-29 10:16 314 7 gusting 17 31.1
2016-Jun-29 10:10 273 6 gusting 13 31.1
2016-Jun-29 10:05 250 6 gusting 13 30.6
2016-Jun-29 10:00 258 5 gusting 13 31.1
2016-Jun-29 09:56 328 4 gusting 12 31.1
2016-Jun-29 09:50 026 3 gusting 10 30.6
2016-Jun-29 09:46 315 6 gusting 11 30.6
2016-Jun-29 09:39 30.0
2016-Jun-29 09:35 290 4 gusting 13 29.4
2016-Jun-29 09:29 311 6 gusting 14 29.4
2016-Jun-29 09:25 036 6 gusting 10 29.4
2016-Jun-29 09:20 321 5 gusting 15 28.9
2016-Jun-29 09:15 315 7 gusting 15 28.9
2016-Jun-29 09:09 298 6 gusting 13 28.9
2016-Jun-29 09:05 287 6 gusting 13 28.3
2016-Jun-29 08:59 298 6 gusting 13 28.3
2016-Jun-29 08:55 319 6 gusting 13 28.3
2016-Jun-29 08:51 334 6 gusting 12 28.3
2016-Jun-29 08:45 329 5 gusting 11 27.8
2016-Jun-29 08:41 330 6 gusting 11 27.8
2016-Jun-29 08:35 288 8 gusting 14 27.2
2016-Jun-29 08:29 319 8 gusting 14 27.2
2016-Jun-29 08:25 323 8 gusting 14 27.2
2016-Jun-29 08:20 321 8 gusting 16 27.2
2016-Jun-29 08:15 309 7 gusting 16 27.8
2016-Jun-29 08:09 246 6 gusting 13 27.8
2016-Jun-29 08:05 329 7 gusting 13 27.2
2016-Jun-29 07:59 309 7 gusting 12 27.2
2016-Jun-29 07:55 340 7 gusting 17 27.2
2016-Jun-29 07:49 337 9 gusting 17 26.7
2016-Jun-29 07:45 025 7 gusting 14 26.7
2016-Jun-29 07:39 348 7 gusting 15 26.7
2016-Jun-29 07:35 291 7 gusting 15 26.7
2016-Jun-29 07:29 294 7 gusting 15 26.7
2016-Jun-29 07:25 005 7 gusting 15 26.7
2016-Jun-29 07:19 325 6 gusting 14 26.1
2016-Jun-29 07:15 328 6 gusting 14 26.1
2016-Jun-29 07:09 022 8 gusting 15 26.1
2016-Jun-29 07:05 340 8 gusting 15 26.1
2016-Jun-29 07:01 325 7 gusting 13 26.1
2016-Jun-29 06:55 319 7 gusting 17 25.6
2016-Jun-29 06:51 326 6 gusting 17 25.6
2016-Jun-29 06:44 300 6 gusting 11 25.6
2016-Jun-29 06:40 277 8 gusting 17 25.6
2016-Jun-29 06:34 287 9 gusting 17 25.0
2016-Jun-29 06:30 350 8 gusting 16 25.0
2016-Jun-29 06:24 298 8 gusting 14 25.0
2016-Jun-29 06:20 323 7 gusting 14 25.0
2016-Jun-29 06:14 294 6 gusting 13 25.0
2016-Jun-29 06:10 318 6 gusting 15 24.4
2016-Jun-29 06:04 321 6 gusting 15 24.4
2016-Jun-29 06:00 274 6 gusting 12 24.4
2016-Jun-29 05:56 321 6 gusting 13 24.4
2016-Jun-29 05:50 005 6 gusting 13 23.9
2016-Jun-29 05:46 040 5 gusting 11 23.9
2016-Jun-29 05:39 313 6 gusting 14 23.9
2016-Jun-29 05:36 330 6 gusting 14 23.3
2016-Jun-29 05:29 329 7 gusting 13 23.3
2016-Jun-29 05:25 349 7 gusting 13 23.3
2016-Jun-29 05:19 345 7 gusting 13 23.3
2016-Jun-29 05:15 319 6 gusting 13 23.3
2016-Jun-29 05:09 343 5 gusting 13 22.8
2016-Jun-29 05:06 318 3 gusting 13 22.8
2016-Jun-29 04:59 329 6 gusting 12 22.8
2016-Jun-29 04:55 304 6 gusting 12 22.8
2016-Jun-29 04:51 323 6 gusting 12 22.2
2016-Jun-29 04:44 309 6 gusting 13 22.2
2016-Jun-29 04:40 298 6 gusting 13 22.2
2016-Jun-29 04:35 322 6 gusting 11 21.7
2016-Jun-29 04:30 294 7 gusting 14 21.7
2016-Jun-29 04:24 327 6 gusting 14 21.7
2016-Jun-29 04:20 335 6 gusting 14 21.7
2016-Jun-29 04:14 340 6 gusting 12 21.7
2016-Jun-29 04:10 341 6 gusting 13 21.7
2016-Jun-29 04:04 294 4 gusting 13 21.7
2016-Jun-29 04:00 303 6 gusting 13 21.7
2016-Jun-29 03:54 338 6 gusting 12 21.7
2016-Jun-29 03:50 331 7 gusting 12 21.7
2016-Jun-29 03:46 324 7 gusting 13 21.7
2016-Jun-29 03:40 295 6 gusting 13 21.7
2016-Jun-29 03:34 350 6 gusting 12 21.1
2016-Jun-29 03:30 306 6 gusting 12 21.1
2016-Jun-29 03:26 286 6 gusting 12 21.1
2016-Jun-29 03:20 317 6 gusting 13 21.1
2016-Jun-29 03:16 310 6 gusting 13 21.1
2016-Jun-29 03:09 299 6 gusting 13 21.1
2016-Jun-29 03:05 330 6 gusting 13 21.1
2016-Jun-29 02:59 318 7 gusting 14 21.1
2016-Jun-29 02:56 322 7 gusting 14 21.1
2016-Jun-29 02:50 293 7 gusting 13 21.1
2016-Jun-29 02:46 304 7 gusting 13 21.1
2016-Jun-29 02:39 325 7 gusting 14 21.1
2016-Jun-29 02:35 303 7 gusting 14 21.7
2016-Jun-29 02:29 329 6 gusting 13 21.7
2016-Jun-29 02:25 281 7 gusting 13 21.7
2016-Jun-29 02:19 327 6 gusting 13 21.7
2016-Jun-29 02:15 280 6 gusting 13 21.7
2016-Jun-29 02:09 339 6 gusting 11 21.7
2016-Jun-29 02:05 323 5 gusting 11 21.7
2016-Jun-29 01:59 286 3 gusting 12 21.7
2016-Jun-29 01:55 005 3 gusting 12 21.7
2016-Jun-29 01:49 344 4 gusting 11 21.7
2016-Jun-29 01:45 355 4 gusting 11 21.7
2016-Jun-29 01:41 010 5 gusting 11 21.7
2016-Jun-29 01:35 271 6 gusting 13 21.7
2016-Jun-29 01:31 316 6 gusting 16 22.2
2016-Jun-29 01:25 323 6 gusting 16 22.2
2016-Jun-29 01:21 333 6 gusting 12 22.2
2016-Jun-29 01:14 349 5 gusting 12 22.2
2016-Jun-29 01:11 338 5 gusting 13 22.2
2016-Jun-29 01:05 301 7 gusting 14 22.2
2016-Jun-29 01:01 280 8 gusting 17 22.2
2016-Jun-29 00:54 327 7 gusting 17 22.2
2016-Jun-29 00:50 22.2
2016-Jun-29 00:45 318 8 gusting 18 22.2
2016-Jun-29 00:40 023 7 gusting 17 22.2
2016-Jun-29 00:34 332 8 gusting 15 22.2
2016-Jun-29 00:30 319 10 gusting 16 22.2
2016-Jun-29 00:24 297 10 gusting 18 22.2
2016-Jun-29 00:20 265 9 gusting 18 22.2
2016-Jun-29 00:15 321 9 gusting 19 22.2
2016-Jun-29 00:09 316 10 gusting 19 22.2
2016-Jun-29 00:05 322 10 gusting 19 22.2
2016-Jun-28 23:59 331 10 gusting 19 22.2
2016-Jun-28 23:55 322 9 gusting 17 22.8
2016-Jun-28 23:49 337 10 gusting 18 22.8
2016-Jun-28 23:45 321 11 gusting 18 22.8
2016-Jun-28 23:39 290 9 gusting 17 22.8
2016-Jun-28 23:35 310 8 gusting 19 22.8
2016-Jun-28 23:29 309 9 gusting 19 22.8
2016-Jun-28 23:25 303 9 gusting 17 23.3
2016-Jun-28 23:19 355 9 gusting 19 23.3
2016-Jun-28 23:15 302 9 gusting 19 23.3
2016-Jun-28 23:11 306 9 gusting 16 23.3
2016-Jun-28 23:05 295 11 gusting 19 23.3
2016-Jun-28 23:01 299 10 gusting 19 23.3
2016-Jun-28 22:55 324 10 gusting 19 23.3
2016-Jun-28 22:51 334 9 gusting 18 23.3
2016-Jun-28 22:45 333 8 gusting 14 23.9
2016-Jun-28 22:41 313 9 gusting 18 23.9
2016-Jun-28 22:34 23.9
2016-Jun-28 22:30 344 7 gusting 16 23.9
2016-Jun-28 22:24 338 6 gusting 16 23.9
2016-Jun-28 22:20 344 5 gusting 12 24.4
2016-Jun-28 22:14 291 5 gusting 13 24.4
2016-Jun-28 22:10 319 5 gusting 13 24.4
2016-Jun-28 22:06 348 4 gusting 13 24.4
2016-Jun-28 22:00 313 5 gusting 13 24.4
2016-Jun-28 21:56 24.4
2016-Jun-28 21:50 318 6 gusting 13 25.0
2016-Jun-28 21:46 022 5 gusting 13 25.0
2016-Jun-28 21:40 325 5 gusting 13 25.0
2016-Jun-28 21:36 315 6 gusting 13 25.0
2016-Jun-28 21:30 019 5 gusting 11 25.6
2016-Jun-28 21:26 341 5 gusting 11 25.6
2016-Jun-28 21:19 328 5 gusting 11 25.6
2016-Jun-28 21:15 309 5 gusting 13 25.6
2016-Jun-28 21:09 005 5 gusting 13 25.6
2016-Jun-28 21:05 332 6 gusting 14 25.6
2016-Jun-28 20:59 009 6 gusting 16 26.1
2016-Jun-28 20:55 294 6 gusting 16 26.1
2016-Jun-28 20:49 299 6 gusting 12 26.1
2016-Jun-28 20:44 311 7 gusting 14 26.1
2016-Jun-28 20:40 302 7 gusting 14 26.1
2016-Jun-28 20:34 342 6 gusting 13 26.1
2016-Jun-28 20:30 331 6 gusting 13 26.7
2016-Jun-28 20:22 300 6 gusting 15 26.7
2016-Jun-28 20:20 318 6 gusting 13 26.7
2016-Jun-28 20:14 341 7 gusting 15 26.7
2016-Jun-28 20:10 297 6 gusting 15 26.7
2016-Jun-28 20:06 26.7
2016-Jun-28 19:59 330 7 gusting 13 26.7
2016-Jun-28 19:55 355 7 gusting 15 26.7
2016-Jun-28 19:49 294 6 gusting 15 26.7
2016-Jun-28 19:45 307 6 gusting 15 26.7
2016-Jun-28 19:39 304 6 gusting 15 26.7
2016-Jun-28 19:35 302 6 gusting 13 26.7
2016-Jun-28 19:29 306 5 gusting 10 26.7
2016-Jun-28 19:25 276 3 gusting 10 26.7
2016-Jun-28 19:21 306 3 gusting 9 26.7
2016-Jun-28 19:15 334 3 gusting 9 26.7
2016-Jun-28 19:11 323 2 gusting 8 26.7
2016-Jun-28 19:05 313 2 gusting 7 26.7
2016-Jun-28 19:01 321 2 gusting 7 26.7